• Bienvenue sur Pilotes Québec!
  • Bienvenue sur le site de Pilotes Québec, la nouvelle communauté des pilotes et aviateurs du Québec.
  • L'Antonov An-2 C-FAKA, piloté par Neil Bilodeau a fait sa première apparition sur skis dans un RV hivernal, au rendez-vous hivernal annuel Challenger à Montebello.  Encore merci Jean-Pierre pour l'image spectaculaire!
  • Calendrier des activités
  • sujets récents au forum...
  • Les nouvelles en bref...

Connexion


J'ai oublié mon mot de passe
Renvoyer l'e-mail de confirmation
 

Conditions actuelles

Click for Quebec, Quebec Forecast

METAR - Québec


2015/02/28 00:00
CYQB 280000Z 24010KT 15SM SKC M14/M21 A3036 RMK SLP290

TAF - Québec


2015/02/27 18:42
TAF CYQB 271739Z 2718/2818 23012G22KT P6SM FEW020
BECMG 2722/2724 24010KT
BECMG 2814/2816 24012G22KT
RMK NXT FCST BY 280000Z

Accueil Forum Aéroports
Région de Montréal
Région de Québec
Calendrier Ressources
Fréquences FIC de Québec
Associations et aéroclubs
Regroupements à l'échelle inter-régionnal
Nous joindre Publicité


Copyright © 2015, Pilotes Québec, tous droits réservés.
Protégé par les lois du copyright des États-Unis et du Canada et par des traités internationaux.